Hourly Data Report for October 05, 2013

All times are specified in Local Standard Time (LST). Add 1 hour to adjust for Daylight Saving Time where and when it is observed.

HALL BEACH A
NUNAVUT

68°46'33.000" N
81°14'33.000" W
9.10 m
2402354
71293
YUX

Download Data

Hourly Data (October 2013)
Hourly Data Report for October 5, 2013
Temp Definition
°C
Dew Point Temp Definition
°C
Rel Hum Definition
%
Wind Dir Definition
10's deg

Wind Spd Definition
km/h
Visibility Definition
km
Stn Press Definition
kPa
Hmdx Definition


Wind Chill Definition


Weather Definition


TIME
00:00 Legend Double Dagger -7.1 -8.6 89 32 18 16.1 102.28   -14 LegendNANA
01:00 Legend Double Dagger -7.1 -8.6 89 32 18 16.1 102.27   -14 LegendNANA
02:00 Legend Double Dagger -7.4 -9.1 88 33 18 16.1 102.25   -14 LegendNANA
03:00 Legend Double Dagger -7.3 -9.1 87 33 21 16.1 102.25   -15 LegendNANA
04:00 Legend Double Dagger -7.6 -9.1 89 33 17 16.1 102.25   -14 LegendNANA
05:00 Legend Double Dagger -7.9 -9.3 90 33 9 16.1 102.24   -12 LegendNANA
06:00 Legend Double Dagger -7.7 -9.2 89 34 17 16.1 102.20   -14 LegendNANA
07:00 Legend Double Dagger -7.5 -9.3 87 31 13 16.1 102.20   -13 LegendNANA
08:00 Legend Double Dagger -7.6 -9.3 88 32 15 16.1 102.17   -14 LegendNANA
09:00 Legend Double Dagger -7.1 -8.9 87 33 17 16.1 102.15   -14 LegendNANA
10:00 Legend Double Dagger -5.7 -8.0 84 32 17 16.1 102.13   -12 LegendNANA
11:00 Legend Double Dagger -5.5 -8.1 82 32 15 16.1 102.11   -11 LegendNANA
12:00 Legend Double Dagger -5.1 -8.4 78 33 11 16.1 102.10   -10 LegendNANA
13:00 Legend Double Dagger -4.9 -9.3 71 34 8 16.1 102.11   -8 LegendNANA
14:00 Legend Double Dagger -4.5 -9.7 67 32 9 16.1 102.09   -8 LegendNANA
15:00 Legend Double Dagger -4.6 -9.8 67 33 8 16.1 102.09   -8 LegendNANA
16:00 Legend Double Dagger -4.7 -9.5 69 32 5 16.1 102.10   -7 LegendNANA
17:00 Legend Double Dagger -5.4 -8.8 77 33 5 16.1 102.09   -8 LegendNANA
18:00 Legend Double Dagger -6.0 -8.6 82 28 5 16.1 102.08   -8 LegendNANA
19:00 Legend Double Dagger -7.0 -9.0 86 25 5 16.1 102.09   -10 LegendNANA
20:00 Legend Double Dagger -6.7 -9.0 84 27 5 16.1 102.08   -9 LegendNANA
21:00 Legend Double Dagger -7.4 -9.7 84 29 8 16.1 102.06   -11 LegendNANA
22:00 Legend Double Dagger -8.0 -9.7 88 30 5 16.1 102.06   -11 LegendNANA
23:00 Legend Double Dagger -7.5 -8.9 90   0 16.1 102.05     LegendNANA

Notes on Data Quality.

Legend

  • E = Estimated
  • M = Missing
  • NA = Not Available
  • ‡ = Partner data that is not subject to review by the National Climate Archives
Date modified: